Terminal Aerodrome Forecast
Issued by NWS

Home | Current Version | Previous Version | Text Only | Print | Product List | Glossary Off
Versions: 1 2 3 4 5 6 7 8 9 10 11 12 13 14 15 16

000
FTUS43 KMPX 201934 AAA
TAFAXN
TAF AMD
KAXN 201934Z 2020/2118 35013KT P6SM BKN025
     FM202300 35011KT P6SM BKN040
     FM210300 33005KT P6SM FEW030
      TEMPO 2109/2113 3SM BR
     FM211400 31006KT P6SM SKC=

USA.gov is the U.S. government's official web portal to all federal, state and local government web resources and services.